Regional Weather Roundup
Issued by NWS Upton, NY

Current Version | Previous Version | Text Only | Print | Product List | Glossary Off
Versions: 1 2 3 4 5 6 7 8 9 10 11 12 13 14 15 16 17 18 19 20 21 22 23 24 25 26 27 28 29 30 31 32 33 34 35 36 37 38 39 40 41 42 43 44 45 46 47 48 49 50
000 ASUS41 KOKX 211905 RWROKX REGIONAL WEATHER ROUNDUP NATIONAL WEATHER SERVICE NEW YORK NY 200 PM EST SUN DEC 21 2014 NOTE: "FAIR" INDICATES FEW OR NO CLOUDS BELOW 12,000 FEET WITH NO SIGNIFICANT WEATHER AND/OR OBSTRUCTIONS TO VISIBILITY. NYZ071-072-176-178-NJZ106-104-212000- NEW YORK CITY METRO AREA CITY SKY/WX TMP DP RH WIND PRES REMARKS CENTRAL PARK CLOUDY 34 26 72 NW5 30.30F WCI 30 LAGUARDIA APRT PTSUNNY 35 27 72 N10 30.28F WCI 27 KENNEDY INTL CLOUDY 37 27 67 NW10 30.29F WCI 30 NEWARK/LIBERTY CLOUDY 36 27 69 N10 30.29S WCI 28 BRNX BOT. GARD N/A N/A N/A N/A NW3 30.30R TETERBORO CLOUDY 36 27 69 NW9 30.28F WCI 29 $$ NYZ177-179-078>081-212000- LONG ISLAND NEW YORK CITY SKY/WX TMP DP RH WIND PRES REMARKS FARMINGDALE CLOUDY 36 29 75 NW7 30.27S WCI 30 ISLIP CLOUDY 36 31 82 NW8 30.25S WCI 30 SHIRLEY CLOUDY 36 33 89 N9 30.27S WCI 29 WESTHAMPTON CLOUDY 37 34 89 N10 30.27S FOG WCI 30 MONTAUK POINT N/A 39 37 92 NE10G17 30.25R WCI 32 $$ NYZ052-065-067-212000- HUDSON VALLEY CITY SKY/WX TMP DP RH WIND PRES REMARKS WHITE PLAINS LGT SNOW 33 30 88 NW8 30.26S FOG WCI 26 NEWBURGH CLOUDY 32 28 86 N6 30.29F FOG WCI 26 MONTGOMERY CLOUDY 33 27 78 NE5 30.28S WCI 29 POUGHKEEPSIE CLOUDY 33 27 78 N6 30.30S WCI 28 ALBANY CLOUDY 31 23 72 N3 30.32S $$ NJZ001-105-106-008-010-013-015-019>022-104-212000- NEW JERSEY CITY SKY/WX TMP DP RH WIND PRES REMARKS NEWARK/LIBERTY CLOUDY 36 27 69 N10 30.29S WCI 28 TETERBORO CLOUDY 36 27 69 NW9 30.28F WCI 29 CALDWELL CLOUDY 34 26 72 VRB5 30.29S WCI 30 MORRISTOWN CLOUDY 36 27 69 N8 30.29S WCI 29 SOMERVILLE CLOUDY 37 25 61 NW8 30.27F WCI 31 SUSSEX CLOUDY 34 27 75 CALM 30.27F ANDOVER N/A 34 24 67 VRB6 30.27F WCI 29 TRENTON CLOUDY 36 23 59 NW3 30.29S MILLVILLE SUNNY 41 23 48 W10 30.29F ATLANTIC CITY SUNNY 41 22 46 NW10 30.28F WRIGHTSTOWN PTSUNNY 38 23 56 N6 30.27S WCI 33 TOMS RIVER MOSUNNY 37 23 56 N10 30.29S WCI 30 BELMAR CLOUDY 36 23 60 NW7 30.27F WCI 30 $$ PAZ047>061-062-071-212000- EASTERN PENNSYLVANIA CITY SKY/WX TMP DP RH WIND PRES REMARKS PHILADELPHIA MOSUNNY 39 22 50 N9 30.31S WCI 33 ALLENTOWN CLOUDY 35 21 56 NW3 30.30S SCRANTON CLOUDY 31 19 61 N7 30.27F WCI 24 $$ CTZ002-004>006-009-010-012-RIZ004-006-007-MAZ004-011-015-212000- SOUTHERN NEW ENGLAND IN CT CITY SKY/WX TMP DP RH WIND PRES REMARKS BRADLEY INTL LGT SNOW 33 30 88 N7 30.28S FOG WCI 27 HARTFORD CLOUDY 33 30 88 N7 30.29S WCI 27 DANBURY LGT SNOW 33 28 81 NW5 30.28S WCI 29 WTRBRY/OXFORD CLOUDY 34 27 75 N7 30.26R WCI 28 BRIDGEPORT CLOUDY 37 33 85 N8 30.28S WCI 31 MERIDEN CLOUDY 35 30 82 N9 30.28S WCI 28 NEW HAVEN LGT SNOW 38 32 79 N10 30.27S FOG WCI 31 CHESTER LGT SNOW 34 32 93 N7 30.26R VSB 1 WCI 28 GROTON LGT RAIN 37 35 92 N9 30.25R FOG WCI 30 WILLIMANTIC CLOUDY 36 31 82 N6 30.28R WCI 31 IN RI CITY SKY/WX TMP DP RH WIND PRES REMARKS PROVIDENCE LGT SNOW 33 31 92 N13 30.29R FOG WCI 24 BLOCK ISLAND CLOUDY 37 34 87 NE12 30.24R WCI 30 WESTERLY CLOUDY 38 33 82 N10 30.26R WCI 31 IN MA CITY SKY/WX TMP DP RH WIND PRES REMARKS BOSTON CLOUDY 33 27 78 N8 30.31S WCI 26 WORCESTER FLURRIES 29 27 92 N6 30.25S WCI 23 WESTFIELD CLOUDY 33 29 85 N8 30.28F WCI 26 PROVINCETOWN CLOUDY 43 34 70 E10 30.27S NANTUCKET CLOUDY 44 32 62 NE12 30.23S $$ ANZ330-335-338-340-345-350-353-355-212000- COASTAL MARINE OBSERVATIONS STATION/POSITION TIME SKY/WX TEMP WIND PRES VSBY WAVE AIR SEA DIR/SP/G HT/PER (UTC) (F) (DEG/KT/KT) (MB) (MI) (FT/S) NY HARB ENTRANCE 1900 36 45 320/ 12/ 14 1025.7 1/10 4S FIRE IS 1900 45 N/A 2/11 20S FIRE ISLAND 1800 38 49 1025.5 1/10 23SW MTP 1900 N/A 3/ 4 HUDSON CANYON 1900 40 55 300/ 10/ 14 1024.5 2/ 4 EXECUTION ROCKS 1900 35 41 350/ 8/ 12 N/A WESTERN LI SOUND 1900 34 330/ 8/ 10 N/A 0 CENTRAL LI SOUND 1800 34 44 350/ 10/ 14 N/A 1/ 2 EASTERN LI SOUND NOT AVBL ROBBINS REEF 1900 34 210/ 6/ 8 1024.4 $$ >>>>>>>>>>>>>>>>>>>>>>>>>>>> KEY <<<<<<<<<<<<<<<<<<<<<<<<<<< > < > SKY/WX - SKY CONDITION/PRESENT WEATHER < > TMP - TEMPERATURE IN FAHRENHEIT < > DP - DEWPOINT IN FAHRENHEIT < > RH - RELATIVE HUMIDITY IN PERCENT < > WIND - DIRECTION AND SPEED IN MPH < > PRES - MEAN SEA LEVEL PRESSURE IN INCHES OF HG < > WCI - WIND CHILL INDEX < > VSB - VISIBILITY IN MILES < > HX - HEAT INDEX < > TC - TEMPERATURE IN CELSIUS < > VRB - VARIABLE WIND DIRECTION < > < >>>>>>>>>>>>>>>>>>>>>>>>>>>> KEY <<<<<<<<<<<<<<<<<<<<<<<<<<<

USA.gov is the U.S. government's official web portal to all federal, state and local government web resources and services.